Station SLIM2 - 8577330 - Solomons Island, MD Image indicating link to RSS feed of recent meteorological observations for station SLIM2


Conditions at SLIM2 as of
(10:30 pm EDT on 04/18/2024)
0230 GMT on 04/19/2024:
     

Click on the graph icon in the table below to see a time series plot of the last five days of that observation.

5-day plot - Wind Direction Wind Direction (WDIR): E ( 80 deg true )
5-day plot - Wind Speed Wind Speed (WSPD): 13.0 kts
5-day plot - Wind Gust Wind Gust (GST): 17.1 kts
5-day plot - Atmospheric Pressure Atmospheric Pressure (PRES):30.12 in
5-day plot - Air Temperature Air Temperature (ATMP): 54.1 °F
5-day plot - Water Temperature Water Temperature (WTMP): 59.7 °F
5-day plot - Wind Speed at 10 Meters Wind Speed at 10 meters (WSPD10M): 13.6 kts
5-day plot - Wind Speed at 20 Meters Wind Speed at 20 meters (WSPD20M): 13.6 kts
5-day plot -  Wind Speed, Wind Gust and Atmospheric Pressure Combined plot of Wind Speed, Gust, and Air Pressure
NOS Water Level Observation Network Water Level
Previous observations
TIME
(EDT)
5-day plot - Wind Direction
WDIR
 
5-day plot - Wind Speed
WSPD
kts
5-day plot - Wind Gust
GST
kts
5-day plot - Wave Height
WVHT
ft
5-day plot - Dominant Wave Period
DPD
sec
5-day plot - Average Wave Period
APD
sec
5-day plot - Mean Wave Direction
MWD
 
5-day plot - Atmospheric Pressure
PRES
in
5-day plot - Pressure Tendency
PTDY
in
5-day plot - Air Temperature
ATMP
°F
5-day plot - Water Temperature
WTMP
°F
5-day plot - Dew Point
DEWP
°F
5-day plot - Salinity
SAL
psu
5-day plot - Visibility
VIS
nmi
5-day plot - Tide (above MLLW)
TIDE
ft
2024-04-18 10:24 pm E 14.0 15.9----30.12- 54.0 59.7----
2024-04-18 10:18 pm E 15.0 18.1----30.11- 54.3 59.7----
2024-04-18 10:12 pm E 15.0 19.0----30.11- 54.5 59.5----
2024-04-18 10:06 pm E 15.9 19.0----30.11- 54.9 59.5----
2024-04-18 10:00 pm E 18.1 20.0----30.10+0.12 55.2 59.4----
2024-04-18 09:54 pm E 18.1 21.0----30.10- 55.8 59.4----
2024-04-18 09:48 pm E 18.1 20.0----30.09- 56.5 59.2----
2024-04-18 09:42 pm E 18.1 20.0----30.09- 56.8 59.0----
2024-04-18 09:36 pmESE 17.1 20.0----30.09- 57.6 58.8----
2024-04-18 09:30 pm E 13.0 19.0----30.08- 59.0 58.8----
2024-04-18 09:24 pm E 11.1 13.0----30.08- 60.1 58.8----
2024-04-18 09:18 pm E 9.9 12.0----30.07- 60.3 58.6----
2024-04-18 09:12 pmENE 11.1 15.0----30.06- 60.4 58.6----
2024-04-18 09:06 pmENE 13.0 15.9----30.06- 60.8 58.6----
2024-04-18 09:00 pmENE 13.0 15.9----30.05+0.06 60.8 58.6----
2024-04-18 08:54 pmENE 15.0 17.1----30.04- 61.0 58.8----
2024-04-18 08:48 pm E 14.0 17.1----30.04- 61.2 58.8----
2024-04-18 08:42 pmENE 12.0 15.0----30.03- 62.2 59.0----
2024-04-18 08:36 pmENE 13.0 15.0----30.03- 62.8 59.2----
2024-04-18 08:30 pmENE 11.1 13.0----30.03- 63.3 59.5----
2024-04-18 08:24 pmENE 12.0 15.0----30.02- 63.3 59.7----
2024-04-18 08:18 pmENE 11.1 13.0----30.02- 63.9 59.9----
2024-04-18 08:12 pmENE 11.1 13.0----30.02- 64.4 59.9----
2024-04-18 08:06 pm NE 5.1 8.0----30.02- 64.6 60.1----
2024-04-18 08:00 pm NE 6.0 8.0----30.01+0.04 65.1 60.1----
2024-04-18 07:54 pm NE 6.0 8.0----30.01- 65.7 60.1----
2024-04-18 07:48 pmNNE 5.1 8.0----30.00- 66.0 60.1----
2024-04-18 07:42 pm NE 6.0 11.1----30.00- 66.2 60.1----
2024-04-18 07:36 pmNNE 7.0 8.9----30.00- 66.6 60.3----
2024-04-18 07:30 pm NE 6.0 8.9----30.00- 66.9 60.3----
2024-04-18 07:24 pmNNE 8.0 11.1----29.99- 67.5 59.9----
2024-04-18 07:00 pmNNE 4.1 6.0----29.99+0.02 68.5 59.9----
2024-04-18 06:54 pmNNE 4.1 7.0----29.99- 68.5 60.1----
2024-04-18 06:48 pmNNE 6.0 8.0----29.99- 68.5 59.5----
2024-04-18 06:42 pmNNE 4.1 7.0----29.99- 68.5 58.3----
2024-04-18 06:36 pm N 5.1 7.0----29.99- 68.5 58.3----
2024-04-18 06:30 pmNNE 5.1 7.0----29.99- 68.5 58.1----
2024-04-18 06:24 pmNNE 8.0 11.1----29.99- 68.9 58.1----
2024-04-18 06:18 pmNNE 6.0 12.0----29.99- 69.1 58.1----
2024-04-18 06:12 pmNNE 6.0 12.0----29.99- 69.1 58.1----
2024-04-18 06:06 pm N 8.0 13.0----29.99- 69.4 58.1----
2024-04-18 06:00 pm N 8.9 12.0----29.99+0.02- 58.1----
2024-04-18 05:54 pm N 6.0 8.9----29.98-- 58.1----
2024-04-18 05:48 pm NE 7.0 12.0----29.99- 69.3 58.1----
2024-04-18 05:42 pm NE 8.9 13.0----29.99- 69.1 58.3----
2024-04-18 05:36 pmNNE 6.0 8.9----29.99- 69.1 58.3----
2024-04-18 05:30 pm NE 8.0 12.0----29.98- 69.3 58.3----
2024-04-18 05:24 pmNNE 11.1 13.0----29.98- 69.4 58.1----
2024-04-18 05:18 pm N 8.9 14.0----29.98- 69.3 58.1----
2024-04-18 05:12 pm N 9.9 15.9----29.98- 69.6 58.1----
2024-04-18 05:06 pmNNE 9.9 15.0----29.98- 69.4 58.1----
2024-04-18 05:00 pm N 12.0 15.9----29.98-0.01 69.4 58.3----
2024-04-18 04:54 pmNNE 11.1 17.1----29.98- 69.3 58.3----
2024-04-18 04:48 pm N 7.0 15.0----29.98- 69.3 58.1----
2024-04-18 04:42 pm N 8.0 12.0----29.97- 68.9 58.1----
2024-04-18 04:36 pm N 7.0 12.0----29.97- 68.5 58.1----
2024-04-18 04:30 pm N 8.9 12.0----29.96- 68.4 57.9----
2024-04-18 04:24 pm N 8.9 12.0----29.96- 68.5 57.9----
2024-04-18 04:18 pmNNE 5.1 8.9----29.96- 68.5 58.1----
2024-04-18 04:12 pmNNE 7.0 12.0----29.96- 68.4 58.1----
2024-04-18 04:06 pm N 8.0 12.0----29.96- 68.4 58.3----
2024-04-18 04:00 pmNNE 8.9 15.0----29.96-0.02 68.0 58.5----
2024-04-18 03:54 pmNNE 8.9 15.0----29.97- 67.8 58.6----
2024-04-18 03:48 pmNNE 12.0 18.1----29.97- 67.5 58.8----
2024-04-18 03:42 pmNNE 12.0 15.0----29.97- 67.5 58.8----
2024-04-18 03:36 pm N 12.0 15.0----29.97- 67.6 58.8----
2024-04-18 03:30 pmNNE 9.9 14.0----29.97- 67.3 59.0----
2024-04-18 03:24 pmNNE 11.1 15.0----29.96- 67.1 59.2----
2024-04-18 03:18 pm N 11.1 18.1----29.97- 66.6 59.4----
2024-04-18 03:12 pmNNE 14.0 18.1----29.97- 66.7 59.7----
2024-04-18 03:06 pmNNE 8.0 11.1----29.97- 67.5 60.1----
2024-04-18 03:00 pm NE 8.9 12.0----29.97-0.01 67.1 60.6----
2024-04-18 02:54 pm N 11.1 14.0----29.98- 67.3 61.5----
2024-04-18 02:48 pmNNE 8.0 11.1----29.98- 67.3 61.3----
2024-04-18 02:42 pm N 9.9 12.0----29.98- 66.9 60.1----
2024-04-18 02:36 pmNNE 8.9 14.0----29.98- 67.3 59.5----
2024-04-18 02:30 pmNNE 8.9 14.0----29.98- 66.9 59.4----
2024-04-18 02:24 pmNNE 11.1 14.0----29.99- 66.9 59.4----
2024-04-18 02:18 pm N 8.9 13.0----29.99- 66.7 59.4----
2024-04-18 02:12 pmNNE 8.0 13.0----29.99- 66.7 59.5----
2024-04-18 02:06 pmNNE 12.0 14.0----29.99- 66.6 59.7----
2024-04-18 02:00 pmNNE 12.0 14.0----29.99+0.00 66.6 59.7----
2024-04-18 01:54 pm N 8.9 14.0----29.99- 67.1 59.7----
2024-04-18 01:48 pmNNE 8.9 12.0----29.98- 67.6 59.7----
2024-04-18 01:42 pm N 12.0 13.0----29.98- 67.1 59.9----
2024-04-18 01:36 pmNNE 8.9 13.0----29.98- 67.3 59.9----
2024-04-18 01:30 pm N 7.0 8.9----29.99- 66.9 59.9----
2024-04-18 01:24 pm N 6.0 9.9----29.98- 66.4 59.9----
2024-04-18 01:18 pm N 8.0 9.9----29.98- 65.5 60.1----
2024-04-18 01:12 pm N 8.0 9.9----29.99- 65.1 60.1----
2024-04-18 01:06 pm N 8.0 11.1----29.99- 64.2 60.1----
2024-04-18 01:00 pm N 9.9 12.0----29.99+0.01 64.2 60.1----
2024-04-18 12:54 pm N 8.9 11.1----29.99- 64.4 60.3----
2024-04-18 12:48 pm N 8.9 13.0----29.99- 65.5 60.3----
2024-04-18 12:42 pm N 9.9 12.0----29.99- 66.4 60.3----
2024-04-18 12:36 pm N 8.9 13.0----29.99- 66.7 60.4----
2024-04-18 12:30 pm N 9.9 11.1----29.99- 66.7 60.4----
2024-04-18 12:24 pm N 8.9 13.0----29.98- 67.1 60.4----
2024-04-18 12:18 pm N 11.1 13.0----29.98- 67.5 60.4----
2024-04-18 12:12 pm N 9.9 13.0----29.98- 68.0 60.4----
2024-04-18 12:06 pm N 9.9 14.0----29.98- 68.5 60.4----
2024-04-18 12:00 pm N 8.0 11.1----29.98+0.00 68.7 59.7----
2024-04-18 11:54 am N 6.0 7.0----29.98- 68.0 59.5----
2024-04-18 11:48 am N 5.1 7.0----29.98- 66.9 59.2----
2024-04-18 11:42 am N 4.1 5.1----29.98- 64.8 59.0----
2024-04-18 11:36 am- 0.0 1.0----29.98- 63.9 58.8----
2024-04-18 11:30 am- 0.0 1.0----29.99- 62.8 58.8----
2024-04-18 11:24 amSSE 1.9 2.9----29.99- 62.1 58.8----
2024-04-18 11:18 amSSE 2.9 4.1----29.99- 61.3 58.8----
2024-04-18 11:12 amSSE 2.9 4.1----29.99- 61.2 58.6----
2024-04-18 11:06 amSSE 2.9 4.1----29.99- 60.8 58.6----
2024-04-18 11:00 am S 2.9 5.1----29.99+0.02 61.5 58.5----
2024-04-18 10:54 amSSW 2.9 5.1----29.99- 62.1 58.5----
2024-04-18 10:48 amSSE 4.1 6.0------------
2024-04-18 10:42 am S 4.1 5.1------------
2024-04-18 10:36 amSSE 2.9 4.1------------
2024-04-18 10:30 am W 1.0 5.1----29.98- 66.4 58.5----
2024-04-18 10:24 amWSW 2.9 4.1----29.98- 64.9 58.5----
2024-04-18 10:18 am SW 1.0 2.9----29.98- 63.5 58.5----
2024-04-18 10:12 am- 0.0 2.9----29.98- 63.1 58.5----
2024-04-18 10:06 am- 0.0 1.0----29.98- 64.8 58.5----
2024-04-18 10:00 amWSW 1.0 4.1----29.98+0.03 64.6 58.3----
2024-04-18 09:54 am W 5.1 8.0----29.98- 63.1 58.3----
2024-04-18 09:48 am W 2.9 6.0----29.98- 63.0 58.3----
2024-04-18 09:42 amWSW 4.1 5.1----29.97- 62.4 58.5----
2024-04-18 09:36 amSSW 2.9 4.1----29.98- 61.0 58.5----
2024-04-18 09:30 amSSW 2.9 4.1----29.97- 60.4 58.5----
2024-04-18 09:24 amSSE 1.9 1.9----29.97- 61.7 58.5----
2024-04-18 09:18 am N 1.0 1.9----29.97- 62.1 58.5----
2024-04-18 09:12 am N 1.9 4.1----29.97- 61.3 58.3----
2024-04-18 09:06 am N 2.9 5.1----29.97- 61.0 58.3----
2024-04-18 09:00 am N 4.1 5.1----29.97+0.05 60.6 58.3----
2024-04-18 08:54 am N 4.1 5.1----29.98- 60.4 58.1----
2024-04-18 08:48 am N 5.1 6.0----29.97- 60.1 58.1----
2024-04-18 08:42 am N 6.0 8.0----29.97- 59.5 58.1----
2024-04-18 08:36 am N 7.0 8.0----29.97- 59.5 58.1----
2024-04-18 08:30 am N 5.1 6.0----29.97- 59.5 58.1----
2024-04-18 08:24 am N 5.1 7.0----29.97- 59.4 57.9----
2024-04-18 08:18 am N 5.1 7.0----29.97- 59.2 57.9----
2024-04-18 08:12 am N 5.1 6.0----29.97- 59.2 57.9----
2024-04-18 08:06 am N 5.1 6.0----29.97- 59.2 57.9----
2024-04-18 08:00 am N 4.1 5.1----29.97+0.07 58.8 57.7----
2024-04-18 07:54 am N 4.1 4.1----29.97- 58.6 57.7----
2024-04-18 07:48 am N 2.9 6.0----29.96- 58.5 57.6----
2024-04-18 07:42 am N 5.1 7.0----29.96- 58.3 57.4----
2024-04-18 07:36 am N 5.1 6.0----29.96- 58.3 57.4----
2024-04-18 07:30 am N 5.1 6.0----29.96- 58.3 57.2----
2024-04-18 07:24 am N 4.1 6.0----29.95- 58.3 56.8----
2024-04-18 07:18 am N 5.1 6.0----29.95- 58.3 56.5----
2024-04-18 07:12 am N 4.1 5.1----29.95- 58.1 56.3----
2024-04-18 07:06 am N 2.9 5.1----29.95- 58.3 56.3----
2024-04-18 07:00 amNNW 5.1 5.1----29.95+0.08 58.1 56.3----
2024-04-18 06:54 am N 4.1 5.1----29.94- 58.3 56.3----
2024-04-18 06:48 am N 2.9 4.1----29.94- 58.1 56.1----
2024-04-18 06:42 am N 4.1 5.1----29.94- 58.1 56.1----
2024-04-18 06:36 am N 2.9 5.1----29.93- 58.1 56.1----
2024-04-18 06:30 am N 4.1 5.1----29.93- 58.1 56.1----
2024-04-18 06:24 am N 4.1 5.1----29.93- 58.1 56.1----
2024-04-18 06:18 am N 4.1 5.1----29.93- 58.1 56.1----
2024-04-18 06:12 am N 1.9 4.1----29.92- 57.9 56.1----
2024-04-18 06:06 amNNE 2.9 4.1----29.92- 57.9 56.1----
2024-04-18 06:00 am N 2.9 4.1----29.92+0.07 57.7 56.1----
2024-04-18 05:54 amNNE 4.1 5.1----29.92- 57.7 56.1----
2024-04-18 05:48 am N 4.1 7.0----29.92- 57.7 56.1----
2024-04-18 05:42 am N 6.0 7.0----29.92- 57.7 56.3----
2024-04-18 05:36 am N 5.1 7.0----29.91- 57.7 56.3----
2024-04-18 05:30 am N 5.1 7.0----29.91- 57.7 56.3----
2024-04-18 05:24 am N 6.0 7.0----29.91- 57.9 56.3----
2024-04-18 05:18 amNNW 5.1 6.0----29.91- 58.1 56.5----
2024-04-18 05:12 am N 5.1 6.0----29.91- 58.1 56.5----
2024-04-18 05:06 am N 5.1 5.1----29.90- 58.1 56.7----
2024-04-18 05:00 am N 4.1 6.0----29.90+0.04 58.3 56.8----
2024-04-18 04:54 am N 2.9 5.1----29.90- 58.5 56.8----
2024-04-18 04:48 am N 4.1 5.1----29.89- 58.6 56.8----
2024-04-18 04:42 amNNE 1.9 4.1----29.89- 58.8 56.8----
2024-04-18 04:36 amNNE 4.1 5.1----29.88- 58.8 56.8----
2024-04-18 04:30 am N 4.1 6.0----29.88- 59.0 56.8----
2024-04-18 04:24 am N 5.1 7.0----29.88- 59.4 56.8----
2024-04-18 04:18 amNNW 5.1 6.0----29.88- 59.5 56.8----
2024-04-18 04:12 am N 4.1 7.0----29.87- 60.1 57.0----
2024-04-18 04:06 am N 6.0 7.0----29.87- 60.4 57.0----
2024-04-18 04:00 am N 5.1 6.0----29.87+0.02 61.0 57.0----
2024-04-18 03:54 am N 6.0 8.0----29.86- 61.5 57.0----
2024-04-18 03:48 am N 5.1 7.0----29.86- 63.3 57.0----
2024-04-18 03:42 am N 6.0 7.0----29.86- 64.6 57.0----
2024-04-18 03:36 amNNW 5.1 7.0----29.86- 66.2 56.8----
2024-04-18 03:30 amNNW 2.9 6.0----29.85- 66.6 56.8----
2024-04-18 03:24 amWNW 4.1 6.0----29.85- 66.7 56.8----
2024-04-18 03:18 am NW 2.9 5.1----29.85- 67.1 57.0----
2024-04-18 03:12 am W 4.1 8.0----29.85- 67.6 57.0----
2024-04-18 03:06 amWNW 5.1 8.0----29.85- 67.5 56.8----
2024-04-18 03:00 amWNW 4.1 7.0----29.85-0.01 68.0 57.0----
2024-04-18 02:54 am W 5.1 7.0----29.85- 68.2 57.0----
2024-04-18 02:48 am W 5.1 8.0----29.85- 68.2 57.0----
2024-04-18 02:42 am W 7.0 11.1----29.85- 68.2 57.2----
2024-04-18 02:36 am W 6.0 13.0----29.85- 68.2 57.2----
2024-04-18 02:30 am W 11.1 14.0----29.85- 67.6 57.4----
2024-04-18 02:24 am W 12.0 15.0----29.85- 67.6 57.4----
2024-04-18 02:18 amWSW 11.1 13.0----29.85- 67.1 57.6----
2024-04-18 02:12 am W 11.1 14.0----29.86- 68.2 57.6----
2024-04-18 02:06 am W 8.9 13.0----29.86- 68.5 57.6----
2024-04-18 02:00 am W 8.0 13.0----29.87+0.00 69.1 57.6----
2024-04-18 01:54 am W 11.1 14.0----29.86- 68.7 57.6----
2024-04-18 01:48 am W 12.0 17.1----29.85- 68.4 57.6----
2024-04-18 01:42 amWSW 14.0 18.1----29.84- 67.8 57.6----
2024-04-18 01:36 am SW 13.0 15.9----29.84- 67.3 57.6----
2024-04-18 01:30 amWSW 13.0 18.1----29.84- 67.5 57.6----
2024-04-18 01:24 amWSW 12.0 14.0----29.84- 67.3 57.7----
2024-04-18 01:18 amWSW 12.0 17.1----29.85- 67.5 57.9----
2024-04-18 01:12 am SW 13.0 17.1----29.85- 67.6 57.9----
2024-04-18 01:06 am SW 13.0 15.9----29.85- 67.5 57.9----
2024-04-18 01:00 am SW 12.0 17.1----29.85-0.04 67.6 58.1----
2024-04-18 12:54 am SW 12.0 15.0----29.85- 67.8 58.3----
2024-04-18 12:48 am SW 13.0 15.0----29.85- 68.7 58.8----
2024-04-18 12:42 am SW 12.0 14.0----29.85- 68.5 59.5----
2024-04-18 12:36 am SW 12.0 15.0----29.85- 68.0 59.5----
2024-04-18 12:30 am SW 11.1 14.0----29.85- 68.2 59.5----
2024-04-18 12:24 am SW 12.0 19.0----29.86- 68.4 59.5----
2024-04-18 12:18 am SW 12.0 15.0----29.85- 68.5 59.5----
2024-04-18 12:12 am SW 12.0 15.0----29.86- 68.4 59.5----
2024-04-18 12:06 am SW 11.1 15.0----29.86- 68.4 59.4----
2024-04-18 12:00 am SW 12.0 14.0----29.86-0.03 68.5 59.4----
2024-04-17 11:54 pm SW 12.0 15.0----29.85- 69.3 59.4----
2024-04-17 11:48 pm SW 12.0 15.0----29.86- 68.2 59.5----
2024-04-17 11:42 pm SW 12.0 14.0----29.86- 68.5 59.7----
2024-04-17 11:36 pm SW 12.0 15.9----29.86- 68.5 59.7----
2024-04-17 11:30 pm SW 12.0 15.0----29.86- 68.9 59.9----
2024-04-17 11:24 pmSSW 13.0 15.0----29.86- 69.8 59.7----
2024-04-17 11:18 pmSSW 14.0 17.1----29.86- 69.6 59.5----
2024-04-17 11:12 pmSSW 14.0 15.9----29.86- 69.4 59.5----
2024-04-17 11:06 pmSSW 14.0 18.1----29.86- 69.1 59.4----
2024-04-17 11:00 pmSSW 13.0 15.0----29.86-0.02 69.1 59.5----
2024-04-17 10:54 pmSSW 14.0 15.9----29.86- 69.3 59.4----